SCP
0 0 0 0 0 0 0 0 0 0 0 0 0 0 0 0 0 0 0 0 0 0 -0 0 0 1 1 1 1 1 1 1 1 1 1 1 1 1 1 1 1 0 0 0 0 0 -0 -0 -0
0 0 0 0 0 0 0 0 0 0 0 0 0 0 0 0 1 1 1 0 0 0 0 1 1 1 1 1 1 1 1 1 1 1 1 1 1 1 1 1 1 0 0 0 0 0 -0 -0 -0
0 0 0 0 0 0 0 -0 0 -0 0 0 0 0 0 0 1 0 0 0 0 0 0 1 1 1 1 1 1 1 1 1 1 1 1 1 1 1 1 1 1 0 0 0 0 0 0 0 -0
0 0 0 0 0 0 -0 -0 0 0 0 0 0 0 0 0 0 0 0 0 0 0 0 1 1 1 1 1 1 0 0 0 0 0 0 0 1 2 1 1 1 0 0 0 0 0 0 0 0
0 0 0 0 0 0 0 0 0 0 0 0 0 0 0 0 0 0 0 0 0 0 0 0 0 0 0 0 0 0 0 0 0 0 0 0 0 0 1 1 1 0 0 0 0 0 0 0 -0
0 0 0 0 -0 -0 0 -0 0 0 0 0 0 0 0 0 0 0 0 1 1 0 0 0 0 0 0 0 0 0 0 0 0 0 0 0 0 0 0 1 0 0 0 0 0 0 0 0 0
0 0 0 0 0 -0 0 0 0 0 0 0 0 0 0 0 0 0 0 1 1 0 0 0 0 0 0 0 0 0 0 0 0 0 0 0 0 -0 0 0 0 0 0 0 0 0 0 0 0
0 0 0 0 0 -0 0 0 0 0 0 0 0 0 0 0 0 1 0 0 0 0 0 0 0 0 0 0 0 0 0 0 0 0 0 0 0 0 0 0 0 0 0 0 0 0 0 0 0
0 0 0 0 0 -0 -0 0 0 0 0 0 0 0 0 0 0 0 0 0 0 0 0 0 0 0 0 0 0 0 0 0 0 0 0 0 0 0 0 0 0 0 0 0 0 0 0 0 0
0 0 0 0 0 -0 -0 0 -0 0 0 0 0 0 0 0 0 0 0 0 0 0 0 0 0 0 0 0 0 0 0 0 0 0 0 0 0 0 0 0 0 0 0 0 0 0 0 0 0
0 0 0 -0 -0 -0 0 0 0 0 0 0 0 0 0 0 0 0 0 0 0 0 0 0 0 0 0 0 0 0 0 0 0 0 0 0 0 0 0 0 0 0 0 0 0 0 0 0 0
0 0 0 -0 -0 0 0 0 0 0 0 0 0 0 0 0 0 0 0 0 0 0 0 0 0 0 0 0 0 0 0 0 0 0 0 0 0 0 0 0 0 0 0 0 0 0 0 0 0
0 0 0 0 0 0 0 0 0 0 0 0 0 0 0 0 0 0 0 0 0 0 0 0 0 0 0 0 0 0 0 0 0 0 0 0 0 0 0 0 0 0 0 0 0 0 0 0 0
0 0 0 0 0 0 0 0 0 -0 0 0 0 0 0 0 0 0 0 0 0 0 0 0 0 0 0 0 0 0 0 0 0 0 0 0 0 0 0 0 0 0 0 0 0 0 0 0 0
0 0 0 0 0 0 0 0 0 0 0 0 0 0 0 0 0 0 0 0 0 0 0 0 0 0 0 0 0 0 0 -0 -0 0 0 0 0 0 0 0 0 0 0 0 0 0 0 0 0
0 0 0 0 0 0 0 -0 0 0 0 0 0 0 0 0 0 0 0 0 0 0 0 0 0 0 0 0 0 0 0 0 -0 0 0 0 0 0 0 0 0 0 0 0 0 0 0 0 0
0 0 0 0 0 0 0 0 0 -0 0 0 0 0 0 0 0 0 -0 0 0 0 0 0 0 0 0 0 0 0 0 0 -0 0 0 0 0 0 0 0 0 0 0 0 0 0 0 0 0
0 0 0 0 0 0 0 0 0 -0 0 0 0 0 0 0 0 -0 0 0 0 0 0 0 0 0 0 0 0 0 0 0 0 -0 0 0 0 0 0 0 0 0 0 0 0 0 0 0 0
0 0 0 0 0 0 0 0 0 0 0 0 0 0 0 0 0 0 0 0 0 0 0 0 0 0 0 0 0 0 0 0 0 -0 -0 0 0 0 0 0 0 0 0 0 0 0 0 0 0
0 0 0 0 0 0 0 0 -0 -0 0 0 0 0 0 0 0 0 -0 -0 0 0 0 0 0 0 0 0 0 0 -0 0 0 0 0 0 0 0 0 0 0 0 0 0 0 0 0 0 0
0 0 0 0 0 0 0 -0 -0 0 0 0 0 0 0 0 0 -0 -0 -0 -0 0 0 0 0 -0 0 -0 -0 -0 -0 0 0 0 0 0 0 0 0 0 0 0 0 0 0 0 0 0 0
0 0 0 0 0 0 0 0 -0 -0 0 0 0 0 0 0 0 -0 -0 -0 -0 -0 0 0 0 -0 -0 -0 -0 -0 -0 -0 -0 0 0 0 0 0 0 0 0 0 0 0 0 0 0 0 0
0 0 0 0 0 0 0 0 -0 -0 0 0 0 0 0 0 0 -0 -0 -0 -0 -0 -0 0 -0 -0 -0 -0 -0 -0 -0 -0 -0 -0 -0 0 -0 -0 0 0 0 0 0 0 -0 -0 0 0 0
0 0 0 0 0 0 0 0 -0 -0 -0 0 0 0 0 0 -0 -0 -0 -0 -0 0 -0 -0 0 -0 -0 -0 -0 -0 -0 -0 -0 -0 -0 0 -0 -0 0 0 0 0 0 0 0 -0 0 0 0
0 0 0 0 0 0 0 0 0 -0 -0 0 0 0 0 0 0 -0 -0 -0 -0 -0 -0 -0 0 -0 -0 -0 -0 -0 -0 -0 -0 -0 -0 -0 -0 0 0 0 0 0 0 0 0 0 0 0 0
0 0 0 0 0 0 0 0 -0 -0 0 0 0 0 0 0 0 -0 -0 -0 -0 -0 -0 -0 0 0 -0 -0 -0 -0 -0 -0 -0 -0 -0 -0 -0 -0 -0 0 -0 0 0 0 0 0 0 0 0
0 0 0 0 0 0 0 0 0 0 0 0 0 0 0 0 0 -0 -0 0 0 0 -0 -0 0 0 0 -0 -0 -0 -0 -0 -0 -0 -0 -0 -0 -0 -0 -0 0 -0 -0 0 0 0 0 0 0
0 0 0 0 0 -0 0 0 0 0 0 0 0 0 0 0 0 0 0 0 0 0 0 0 0 0 0 0 0 0 -0 -0 -0 -0 -0 -0 -0 -0 -0 -0 -0 0 0 0 0 0 0 0 0
0 0 0 0 0 -0 0 0 0 0 0 0 0 0 0 0 0 0 0 0 0 0 0 0 0 0 0 0 0 0 0 0 0 0 0 -0 -0 -0 -0 -0 -0 0 0 0 0 0 0 0 0
-0 0 0 0 0 0 0 -0 0 0 0 0 0 0 0 0 0 0 0 0 0 0 0 0 0 0 0 0 0 0 0 0 0 0 0 0 0 -0 -0 -0 -0 0 0 0 0 0 0 0 0
Wind_Speed_500mb
5 7 7 7 6 8 9 13 9 7 2 17 16 13 12 9 7 7 27 19 5 7 7 5 8 25 41 47 47 48 47 43 37 33 34 37 45 45 48 45 47 44 45 45 49 49 46 42 40
12 13 5 1 7 3 10 11 13 14 20 22 17 14 11 3 17 16 25 15 2 12 13 10 12 26 41 46 44 44 45 43 36 29 31 38 41 43 44 45 45 43 44 47 50 51 48 46 44
15 16 4 7 7 11 11 5 9 15 34 20 12 8 16 22 18 18 13 10 4 9 11 10 14 25 40 47 45 45 44 41 35 30 27 33 41 43 45 46 46 47 47 49 52 54 53 48 51
15 10 6 5 23 18 11 14 31 12 12 19 17 11 14 18 28 23 21 9 2 4 8 7 14 18 30 36 42 46 47 49 49 49 28 31 29 44 50 48 49 48 46 51 56 61 57 56 54
21 7 1 6 18 14 10 26 43 22 13 15 23 12 13 25 26 27 10 7 7 7 9 6 12 20 26 36 41 41 40 41 43 40 28 22 36 40 47 51 52 53 54 55 60 64 63 58 55
10 4 4 10 21 12 14 43 49 23 19 23 13 15 12 30 24 18 13 11 11 12 14 14 16 21 26 35 43 44 44 48 44 35 57 34 53 49 47 52 57 59 52 57 65 65 63 62 55
11 7 10 10 15 15 11 40 20 13 8 6 11 9 24 36 27 22 18 12 12 12 19 23 23 24 24 31 37 40 40 39 39 46 49 39 63 56 52 57 61 53 51 61 67 67 70 65 52
13 8 7 10 12 22 12 44 12 10 7 12 9 14 13 44 38 31 17 11 8 7 10 31 31 25 25 30 35 33 33 36 39 44 55 52 58 60 59 61 59 47 51 64 69 74 72 63 50
17 6 11 12 15 18 27 12 43 16 15 14 13 15 19 42 46 32 24 17 13 8 7 21 31 25 22 25 35 36 34 35 38 41 56 79 50 71 65 61 53 43 49 66 71 78 71 57 47
13 11 25 17 22 21 31 24 30 21 12 12 15 11 16 48 47 35 27 20 15 11 5 14 28 30 30 26 30 32 38 31 29 44 60 77 76 82 74 64 53 44 54 68 74 74 67 52 48
14 20 21 30 44 43 37 40 40 16 9 23 17 26 37 51 45 33 24 18 14 14 10 14 23 35 28 25 23 30 39 40 31 17 61 84 87 86 80 70 61 54 61 71 72 74 70 51 52
10 16 38 42 64 44 27 57 23 27 36 28 13 27 46 51 46 35 27 22 26 24 15 15 22 32 29 25 25 26 35 36 34 21 48 85 97 91 81 72 63 60 72 73 73 82 74 64 49
11 23 50 55 65 57 66 45 45 54 60 41 25 29 44 52 44 32 18 27 31 32 23 17 24 25 27 28 31 30 35 39 30 20 64 93 93 85 78 68 62 64 72 71 78 88 80 70 44
18 35 48 52 54 55 26 32 20 56 52 44 39 35 44 50 46 39 36 40 39 35 25 20 22 27 29 30 35 38 37 44 38 33 66 81 85 79 70 63 65 70 70 71 79 86 82 73 48
40 23 25 22 27 9 31 26 16 56 58 50 52 56 49 53 53 50 42 45 41 37 27 25 25 30 29 31 40 41 45 47 49 61 72 78 82 73 70 71 72 70 71 73 79 84 80 74 49
8 6 10 10 5 13 15 40 24 55 49 55 58 58 62 55 57 52 43 44 42 38 31 30 28 31 26 27 30 37 48 53 58 74 82 88 82 74 60 68 68 71 71 74 81 87 83 75 58
4 14 16 14 6 7 11 34 22 57 53 51 68 68 73 64 55 59 51 48 44 40 33 32 30 36 31 27 26 28 32 35 53 71 76 85 84 73 73 70 67 68 73 74 79 90 83 71 58
13 11 9 5 9 12 21 35 26 58 48 52 60 58 48 62 70 70 61 53 45 42 37 31 29 38 34 30 33 24 26 32 38 59 72 87 87 79 76 75 70 74 78 76 76 78 74 68 55
8 17 19 11 13 25 21 39 28 39 52 47 53 59 54 66 73 72 66 58 51 47 43 37 32 43 42 41 42 38 31 32 49 66 73 96 88 79 77 78 73 76 82 75 71 67 60 54 56
16 14 13 14 3 14 34 45 30 36 27 40 54 61 61 67 69 79 73 64 58 53 47 40 34 41 47 47 42 44 35 35 47 59 64 88 79 79 77 74 76 76 84 74 72 63 62 58 63
15 14 10 16 14 7 21 38 38 43 38 49 52 56 67 69 79 87 83 72 64 59 52 44 38 37 51 49 46 43 36 37 43 57 60 84 80 81 84 76 78 78 81 71 70 68 67 67 67
7 7 7 13 10 7 18 17 25 29 35 35 42 47 55 70 83 96 90 78 72 65 54 46 39 35 44 56 52 55 54 57 51 58 71 76 77 75 75 75 74 81 79 76 70 69 69 71 74
4 10 5 3 6 14 16 12 29 18 34 37 25 49 53 60 80 94 99 87 78 70 60 52 43 37 43 54 58 54 57 56 45 51 67 71 74 77 78 78 81 78 81 81 76 79 77 75 75
12 9 7 8 5 17 28 19 28 28 29 32 23 39 42 63 80 99 105 93 84 73 61 54 49 40 46 52 58 62 61 59 58 62 66 74 80 83 80 75 78 74 76 85 76 77 72 76 77
10 9 6 10 12 21 27 26 38 16 26 28 31 42 65 55 85 88 98 98 88 79 68 59 55 48 49 54 62 65 62 60 60 64 78 79 87 91 90 86 88 80 76 71 79 81 86 83 79
10 15 6 10 9 3 21 18 11 44 47 61 63 65 73 53 85 97 107 104 93 82 71 62 58 52 49 51 62 66 68 66 59 61 68 84 85 86 90 94 89 84 77 77 76 84 85 82 81
12 9 10 10 6 2 8 12 11 27 39 36 44 38 24 69 82 94 100 100 90 82 71 64 58 53 51 50 57 68 70 67 68 63 67 67 79 88 94 94 95 92 89 84 84 88 87 84 81
9 11 4 7 5 5 8 6 8 28 35 41 33 14 17 42 74 86 90 92 83 76 71 66 56 51 47 49 53 61 69 74 72 68 70 73 68 73 86 96 99 96 91 90 86 87 85 88 84
9 5 10 7 8 4 4 2 9 18 24 35 37 45 46 39 28 50 76 83 80 74 69 67 60 54 52 50 51 56 66 72 76 75 72 71 71 71 79 91 103 105 101 95 98 96 94 93 91
23 13 12 6 5 6 1 5 14 20 28 26 31 36 45 60 62 31 47 37 46 58 64 63 60 56 51 45 48 53 56 65 70 74 72 68 72 72 75 80 95 111 111 109 108 110 111 107 106
Wind_Direction_500mb
203 212 250 304 40 64 263 259 266 289 203 139 117 113 143 149 159 222 166 185 205 348 339 336 241 206 201 193 189 186 184 179 179 179 182 179 174 173 172 170 166 166 168 169 166 158 159 155 151
188 192 261 96 101 56 271 254 217 223 168 145 128 125 129 96 142 160 164 186 53 346 339 304 234 210 206 202 193 191 187 186 182 179 181 184 183 179 176 173 171 174 175 170 163 152 157 154 153
181 187 187 141 164 191 219 232 33 275 168 166 142 127 140 137 166 146 155 173 128 332 308 275 228 214 209 206 196 193 190 187 179 165 181 179 186 185 182 178 176 175 171 161 155 158 153 153 148
180 183 221 139 241 241 228 315 299 259 241 166 149 100 114 159 168 165 166 160 315 291 294 267 209 209 216 215 216 206 199 193 186 182 157 183 192 186 182 175 172 169 163 156 154 149 149 150 146
183 165 134 248 258 265 244 259 278 260 194 180 163 164 106 158 170 159 137 205 268 272 273 254 215 205 205 212 216 217 211 206 199 190 212 258 205 202 184 175 167 161 158 155 149 148 150 150 151
172 153 110 229 258 276 275 284 292 219 175 183 155 103 148 162 172 163 193 224 235 248 247 239 234 222 216 214 217 212 210 204 235 235 213 219 206 202 189 172 167 162 160 153 152 152 152 150 149
147 100 217 223 269 292 288 309 244 203 130 154 146 89 154 176 194 197 208 214 224 251 256 238 233 225 219 216 220 218 215 222 221 211 218 204 206 199 194 176 170 166 161 157 157 155 153 149 155
193 110 255 223 242 276 249 343 235 177 206 153 177 163 189 191 194 204 202 222 227 270 263 242 233 224 230 221 217 222 228 223 223 225 218 179 203 197 190 182 175 171 168 163 159 157 154 156 166
179 123 243 216 223 244 316 358 329 277 183 196 219 223 248 193 195 200 211 224 237 242 288 235 226 218 223 216 223 232 225 217 198 213 208 201 198 209 188 184 177 176 172 168 161 160 157 159 163
167 176 233 205 238 276 299 298 306 288 253 237 246 263 203 192 189 205 217 239 242 219 225 218 208 205 214 218 217 214 215 205 229 230 216 216 197 187 191 183 179 185 173 170 164 165 161 165 166
202 221 244 263 260 268 274 288 286 252 269 253 257 212 185 183 195 207 229 253 262 226 198 213 207 207 216 214 220 215 208 209 201 212 198 183 181 185 190 181 181 179 176 172 168 168 164 164 163
251 241 243 260 264 262 262 270 265 239 251 254 272 231 195 195 201 210 224 229 230 224 211 225 211 213 211 218 219 221 211 208 200 171 204 189 179 185 181 182 182 178 173 173 172 169 163 158 167
224 245 253 255 260 261 264 261 259 265 275 268 251 213 211 207 207 208 226 216 213 216 223 227 208 213 221 219 214 215 210 203 207 199 177 172 180 183 184 184 180 177 174 176 171 169 166 162 168
247 240 251 256 258 260 260 262 240 264 275 263 262 226 217 217 211 194 209 210 208 218 230 237 221 212 209 218 221 211 203 198 199 179 185 187 183 185 185 182 180 175 176 173 172 172 170 168 177
249 257 272 251 249 254 292 283 254 282 265 267 266 262 253 219 206 206 216 216 217 222 230 227 230 226 219 221 219 217 216 209 199 175 185 190 188 188 182 181 177 179 174 173 173 175 174 169 176
283 250 243 259 274 252 229 274 266 275 273 265 265 261 252 232 216 210 212 213 210 220 228 229 226 226 215 215 213 214 217 216 208 191 191 190 188 187 189 187 180 178 175 175 174 175 175 175 180
261 247 260 298 188 279 206 283 277 284 268 259 264 260 263 235 203 207 208 211 213 217 228 229 227 215 210 212 195 186 189 201 213 203 197 193 191 197 192 189 182 179 175 174 174 175 180 177 180
224 255 254 224 315 307 284 282 277 285 268 253 247 246 236 208 202 200 201 207 208 210 217 226 226 196 205 208 194 180 176 192 201 207 210 199 195 195 188 189 184 179 177 176 176 179 187 188 183
246 270 270 292 314 317 312 283 276 290 295 260 236 212 201 200 204 194 198 203 201 206 214 221 226 198 199 204 203 199 185 183 203 206 206 194 194 192 192 189 183 182 180 181 183 184 185 185 188
237 256 289 281 205 350 322 290 285 297 287 260 215 215 212 205 191 188 194 199 210 216 213 215 217 203 200 204 209 207 199 187 195 203 209 189 193 192 191 189 185 188 182 185 186 189 191 188 187
249 231 246 271 338 266 301 286 284 281 291 284 244 230 222 213 195 189 192 201 208 213 213 215 214 211 198 202 207 205 192 195 193 200 206 193 198 199 193 190 192 191 195 191 191 194 194 188 192
253 270 326 337 4 257 50 280 277 280 291 281 272 229 222 217 203 195 194 199 211 215 213 214 211 212 200 197 201 199 198 193 199 196 200 207 204 193 195 193 200 195 199 200 198 199 198 196 196
199 67 10 13 267 311 226 240 260 266 279 273 270 255 232 223 208 196 199 206 208 212 208 211 207 207 198 197 199 199 198 198 201 197 189 190 191 193 197 200 203 202 207 206 206 203 203 204 204
109 57 325 231 208 251 226 203 261 253 254 267 263 265 256 230 215 209 203 202 203 205 206 210 206 206 202 196 198 198 199 199 195 201 198 197 198 198 201 204 207 210 210 212 202 203 213 216 215
80 71 303 212 203 239 171 202 247 240 243 262 264 271 271 252 208 188 192 199 203 203 204 208 207 205 204 197 198 200 201 205 203 203 203 206 207 208 212 208 209 211 213 213 210 215 216 221 226
158 156 231 253 222 312 206 241 237 221 230 256 258 276 270 222 193 188 198 201 203 203 204 208 207 207 204 206 202 206 208 209 211 214 210 208 212 212 210 208 212 213 215 217 217 218 224 229 231
160 188 212 287 253 259 238 288 262 22 13 317 262 259 190 177 182 189 195 199 201 204 208 210 207 209 210 212 206 207 212 209 212 216 216 220 218 217 218 216 219 220 223 223 224 227 229 231 233
139 116 201 209 248 245 272 260 43 27 359 5 8 351 72 175 180 188 194 198 202 209 210 211 211 214 215 217 216 210 214 216 218 219 218 219 223 227 226 224 223 222 225 226 227 228 231 233 234
170 160 191 270 260 263 296 327 11 4 348 6 354 8 72 105 160 180 190 196 204 209 211 213 212 213 216 220 223 221 217 217 219 220 221 224 227 228 231 230 225 225 227 229 232 231 230 233 236
192 175 167 229 263 261 310 268 348 353 349 357 26 13 40 67 72 138 191 190 205 211 212 217 216 220 223 225 228 230 230 224 224 226 229 227 230 231 233 233 233 233 234 237 239 236 235 237 236
Wind_Speed_850mb
5 7 7 7 6 8 9 13 9 7 2 17 16 13 12 9 7 7 27 19 5 7 7 5 8 25 41 47 47 48 47 43 37 33 34 37 45 45 48 45 47 44 45 45 49 49 46 42 40
12 13 5 1 7 3 10 11 13 14 20 22 17 14 11 3 17 16 25 15 2 12 13 10 12 26 41 46 44 44 45 43 36 29 31 38 41 43 44 45 45 43 44 47 50 51 48 46 44
15 16 4 7 7 11 11 5 9 15 34 20 12 8 16 22 18 18 13 10 4 9 11 10 14 25 40 47 45 45 44 41 35 30 27 33 41 43 45 46 46 47 47 49 52 54 53 48 51
15 10 6 5 23 18 11 14 31 12 12 19 17 11 14 18 28 23 21 9 2 4 8 7 14 18 30 36 42 46 47 49 49 49 28 31 29 44 50 48 49 48 46 51 56 61 57 56 54
21 7 1 6 18 14 10 26 43 22 13 15 23 12 13 25 26 27 10 7 7 7 9 6 12 20 26 36 41 41 40 41 43 40 28 22 36 40 47 51 52 53 54 55 60 64 63 58 55
10 4 4 10 21 12 14 43 49 23 19 23 13 15 12 30 24 18 13 11 11 12 14 14 16 21 26 35 43 44 44 48 44 35 57 34 53 49 47 52 57 59 52 57 65 65 63 62 55
11 7 10 10 15 15 11 40 20 13 8 6 11 9 24 36 27 22 18 12 12 12 19 23 23 24 24 31 37 40 40 39 39 46 49 39 63 56 52 57 61 53 51 61 67 67 70 65 52
13 8 7 10 12 22 12 44 12 10 7 12 9 14 13 44 38 31 17 11 8 7 10 31 31 25 25 30 35 33 33 36 39 44 55 52 58 60 59 61 59 47 51 64 69 74 72 63 50
17 6 11 12 15 18 27 12 43 16 15 14 13 15 19 42 46 32 24 17 13 8 7 21 31 25 22 25 35 36 34 35 38 41 56 79 50 71 65 61 53 43 49 66 71 78 71 57 47
13 11 25 17 22 21 31 24 30 21 12 12 15 11 16 48 47 35 27 20 15 11 5 14 28 30 30 26 30 32 38 31 29 44 60 77 76 82 74 64 53 44 54 68 74 74 67 52 48
14 20 21 30 44 43 37 40 40 16 9 23 17 26 37 51 45 33 24 18 14 14 10 14 23 35 28 25 23 30 39 40 31 17 61 84 87 86 80 70 61 54 61 71 72 74 70 51 52
10 16 38 42 64 44 27 57 23 27 36 28 13 27 46 51 46 35 27 22 26 24 15 15 22 32 29 25 25 26 35 36 34 21 48 85 97 91 81 72 63 60 72 73 73 82 74 64 49
11 23 50 55 65 57 66 45 45 54 60 41 25 29 44 52 44 32 18 27 31 32 23 17 24 25 27 28 31 30 35 39 30 20 64 93 93 85 78 68 62 64 72 71 78 88 80 70 44
18 35 48 52 54 55 26 32 20 56 52 44 39 35 44 50 46 39 36 40 39 35 25 20 22 27 29 30 35 38 37 44 38 33 66 81 85 79 70 63 65 70 70 71 79 86 82 73 48
40 23 25 22 27 9 31 26 16 56 58 50 52 56 49 53 53 50 42 45 41 37 27 25 25 30 29 31 40 41 45 47 49 61 72 78 82 73 70 71 72 70 71 73 79 84 80 74 49
8 6 10 10 5 13 15 40 24 55 49 55 58 58 62 55 57 52 43 44 42 38 31 30 28 31 26 27 30 37 48 53 58 74 82 88 82 74 60 68 68 71 71 74 81 87 83 75 58
4 14 16 14 6 7 11 34 22 57 53 51 68 68 73 64 55 59 51 48 44 40 33 32 30 36 31 27 26 28 32 35 53 71 76 85 84 73 73 70 67 68 73 74 79 90 83 71 58
13 11 9 5 9 12 21 35 26 58 48 52 60 58 48 62 70 70 61 53 45 42 37 31 29 38 34 30 33 24 26 32 38 59 72 87 87 79 76 75 70 74 78 76 76 78 74 68 55
8 17 19 11 13 25 21 39 28 39 52 47 53 59 54 66 73 72 66 58 51 47 43 37 32 43 42 41 42 38 31 32 49 66 73 96 88 79 77 78 73 76 82 75 71 67 60 54 56
16 14 13 14 3 14 34 45 30 36 27 40 54 61 61 67 69 79 73 64 58 53 47 40 34 41 47 47 42 44 35 35 47 59 64 88 79 79 77 74 76 76 84 74 72 63 62 58 63
15 14 10 16 14 7 21 38 38 43 38 49 52 56 67 69 79 87 83 72 64 59 52 44 38 37 51 49 46 43 36 37 43 57 60 84 80 81 84 76 78 78 81 71 70 68 67 67 67
7 7 7 13 10 7 18 17 25 29 35 35 42 47 55 70 83 96 90 78 72 65 54 46 39 35 44 56 52 55 54 57 51 58 71 76 77 75 75 75 74 81 79 76 70 69 69 71 74
4 10 5 3 6 14 16 12 29 18 34 37 25 49 53 60 80 94 99 87 78 70 60 52 43 37 43 54 58 54 57 56 45 51 67 71 74 77 78 78 81 78 81 81 76 79 77 75 75
12 9 7 8 5 17 28 19 28 28 29 32 23 39 42 63 80 99 105 93 84 73 61 54 49 40 46 52 58 62 61 59 58 62 66 74 80 83 80 75 78 74 76 85 76 77 72 76 77
10 9 6 10 12 21 27 26 38 16 26 28 31 42 65 55 85 88 98 98 88 79 68 59 55 48 49 54 62 65 62 60 60 64 78 79 87 91 90 86 88 80 76 71 79 81 86 83 79
10 15 6 10 9 3 21 18 11 44 47 61 63 65 73 53 85 97 107 104 93 82 71 62 58 52 49 51 62 66 68 66 59 61 68 84 85 86 90 94 89 84 77 77 76 84 85 82 81
12 9 10 10 6 2 8 12 11 27 39 36 44 38 24 69 82 94 100 100 90 82 71 64 58 53 51 50 57 68 70 67 68 63 67 67 79 88 94 94 95 92 89 84 84 88 87 84 81
9 11 4 7 5 5 8 6 8 28 35 41 33 14 17 42 74 86 90 92 83 76 71 66 56 51 47 49 53 61 69 74 72 68 70 73 68 73 86 96 99 96 91 90 86 87 85 88 84
9 5 10 7 8 4 4 2 9 18 24 35 37 45 46 39 28 50 76 83 80 74 69 67 60 54 52 50 51 56 66 72 76 75 72 71 71 71 79 91 103 105 101 95 98 96 94 93 91
23 13 12 6 5 6 1 5 14 20 28 26 31 36 45 60 62 31 47 37 46 58 64 63 60 56 51 45 48 53 56 65 70 74 72 68 72 72 75 80 95 111 111 109 108 110 111 107 106
Wind_Direction_850mb
203 212 250 304 40 64 263 259 266 289 203 139 117 113 143 149 159 222 166 185 205 348 339 336 241 206 201 193 189 186 184 179 179 179 182 179 174 173 172 170 166 166 168 169 166 158 159 155 151
188 192 261 96 101 56 271 254 217 223 168 145 128 125 129 96 142 160 164 186 53 346 339 304 234 210 206 202 193 191 187 186 182 179 181 184 183 179 176 173 171 174 175 170 163 152 157 154 153
181 187 187 141 164 191 219 232 33 275 168 166 142 127 140 137 166 146 155 173 128 332 308 275 228 214 209 206 196 193 190 187 179 165 181 179 186 185 182 178 176 175 171 161 155 158 153 153 148
180 183 221 139 241 241 228 315 299 259 241 166 149 100 114 159 168 165 166 160 315 291 294 267 209 209 216 215 216 206 199 193 186 182 157 183 192 186 182 175 172 169 163 156 154 149 149 150 146
183 165 134 248 258 265 244 259 278 260 194 180 163 164 106 158 170 159 137 205 268 272 273 254 215 205 205 212 216 217 211 206 199 190 212 258 205 202 184 175 167 161 158 155 149 148 150 150 151
172 153 110 229 258 276 275 284 292 219 175 183 155 103 148 162 172 163 193 224 235 248 247 239 234 222 216 214 217 212 210 204 235 235 213 219 206 202 189 172 167 162 160 153 152 152 152 150 149
147 100 217 223 269 292 288 309 244 203 130 154 146 89 154 176 194 197 208 214 224 251 256 238 233 225 219 216 220 218 215 222 221 211 218 204 206 199 194 176 170 166 161 157 157 155 153 149 155
193 110 255 223 242 276 249 343 235 177 206 153 177 163 189 191 194 204 202 222 227 270 263 242 233 224 230 221 217 222 228 223 223 225 218 179 203 197 190 182 175 171 168 163 159 157 154 156 166
179 123 243 216 223 244 316 358 329 277 183 196 219 223 248 193 195 200 211 224 237 242 288 235 226 218 223 216 223 232 225 217 198 213 208 201 198 209 188 184 177 176 172 168 161 160 157 159 163
167 176 233 205 238 276 299 298 306 288 253 237 246 263 203 192 189 205 217 239 242 219 225 218 208 205 214 218 217 214 215 205 229 230 216 216 197 187 191 183 179 185 173 170 164 165 161 165 166
202 221 244 263 260 268 274 288 286 252 269 253 257 212 185 183 195 207 229 253 262 226 198 213 207 207 216 214 220 215 208 209 201 212 198 183 181 185 190 181 181 179 176 172 168 168 164 164 163
251 241 243 260 264 262 262 270 265 239 251 254 272 231 195 195 201 210 224 229 230 224 211 225 211 213 211 218 219 221 211 208 200 171 204 189 179 185 181 182 182 178 173 173 172 169 163 158 167
224 245 253 255 260 261 264 261 259 265 275 268 251 213 211 207 207 208 226 216 213 216 223 227 208 213 221 219 214 215 210 203 207 199 177 172 180 183 184 184 180 177 174 176 171 169 166 162 168
247 240 251 256 258 260 260 262 240 264 275 263 262 226 217 217 211 194 209 210 208 218 230 237 221 212 209 218 221 211 203 198 199 179 185 187 183 185 185 182 180 175 176 173 172 172 170 168 177
249 257 272 251 249 254 292 283 254 282 265 267 266 262 253 219 206 206 216 216 217 222 230 227 230 226 219 221 219 217 216 209 199 175 185 190 188 188 182 181 177 179 174 173 173 175 174 169 176
283 250 243 259 274 252 229 274 266 275 273 265 265 261 252 232 216 210 212 213 210 220 228 229 226 226 215 215 213 214 217 216 208 191 191 190 188 187 189 187 180 178 175 175 174 175 175 175 180
261 247 260 298 188 279 206 283 277 284 268 259 264 260 263 235 203 207 208 211 213 217 228 229 227 215 210 212 195 186 189 201 213 203 197 193 191 197 192 189 182 179 175 174 174 175 180 177 180
224 255 254 224 315 307 284 282 277 285 268 253 247 246 236 208 202 200 201 207 208 210 217 226 226 196 205 208 194 180 176 192 201 207 210 199 195 195 188 189 184 179 177 176 176 179 187 188 183
246 270 270 292 314 317 312 283 276 290 295 260 236 212 201 200 204 194 198 203 201 206 214 221 226 198 199 204 203 199 185 183 203 206 206 194 194 192 192 189 183 182 180 181 183 184 185 185 188
237 256 289 281 205 350 322 290 285 297 287 260 215 215 212 205 191 188 194 199 210 216 213 215 217 203 200 204 209 207 199 187 195 203 209 189 193 192 191 189 185 188 182 185 186 189 191 188 187
249 231 246 271 338 266 301 286 284 281 291 284 244 230 222 213 195 189 192 201 208 213 213 215 214 211 198 202 207 205 192 195 193 200 206 193 198 199 193 190 192 191 195 191 191 194 194 188 192
253 270 326 337 4 257 50 280 277 280 291 281 272 229 222 217 203 195 194 199 211 215 213 214 211 212 200 197 201 199 198 193 199 196 200 207 204 193 195 193 200 195 199 200 198 199 198 196 196
199 67 10 13 267 311 226 240 260 266 279 273 270 255 232 223 208 196 199 206 208 212 208 211 207 207 198 197 199 199 198 198 201 197 189 190 191 193 197 200 203 202 207 206 206 203 203 204 204
109 57 325 231 208 251 226 203 261 253 254 267 263 265 256 230 215 209 203 202 203 205 206 210 206 206 202 196 198 198 199 199 195 201 198 197 198 198 201 204 207 210 210 212 202 203 213 216 215
80 71 303 212 203 239 171 202 247 240 243 262 264 271 271 252 208 188 192 199 203 203 204 208 207 205 204 197 198 200 201 205 203 203 203 206 207 208 212 208 209 211 213 213 210 215 216 221 226
158 156 231 253 222 312 206 241 237 221 230 256 258 276 270 222 193 188 198 201 203 203 204 208 207 207 204 206 202 206 208 209 211 214 210 208 212 212 210 208 212 213 215 217 217 218 224 229 231
160 188 212 287 253 259 238 288 262 22 13 317 262 259 190 177 182 189 195 199 201 204 208 210 207 209 210 212 206 207 212 209 212 216 216 220 218 217 218 216 219 220 223 223 224 227 229 231 233
139 116 201 209 248 245 272 260 43 27 359 5 8 351 72 175 180 188 194 198 202 209 210 211 211 214 215 217 216 210 214 216 218 219 218 219 223 227 226 224 223 222 225 226 227 228 231 233 234
170 160 191 270 260 263 296 327 11 4 348 6 354 8 72 105 160 180 190 196 204 209 211 213 212 213 216 220 223 221 217 217 219 220 221 224 227 228 231 230 225 225 227 229 232 231 230 233 236
192 175 167 229 263 261 310 268 348 353 349 357 26 13 40 67 72 138 191 190 205 211 212 217 216 220 223 225 228 230 230 224 224 226 229 227 230 231 233 233 233 233 234 237 239 236 235 237 236